www.pogodaiklimat.ru

Погода и климат >> Архив погоды >> Туркменистан >> Газаджак


ПОГОДА в Газаджаке

  • Прогноз погоды в Газаджаке
  • Монитор погоды в Газаджаке

АРХИВ ПОГОДЫ в Газаджаке

Время (UTC), дата Ветер
(напр.,м/с)
 
Видим.   Явления Облачность Т
(С)
Тd
(С)
f
(%)
Тe
(С)
Тes
(С)
Комфортность P
(гПа)
Po
(гПа)
Тmin
(С)
Tmax
(С)
R
(мм)
R24
(мм)
S
(см)
00 12.07 З 1 10 км 3/0
[Ci fib]
+27.5 +19.9 63 +33 +33 очень
душно
999.6 995.7
03 12.07 З 1 20 км 8/0
[Ac As]
+30.4 +19.2 51 +36 +37 очень
душно
1000.0 996.2 +27.4
06 12.07 В 3 20 км 9/0
[Ac cuf]
+33.2 +18.1 41 +38 +42 очень
душно
998.8 995.0 +27.4
09 12.07 В 5 20 км 1/0
[Ac und]
+39.9 +14.8 23 +41 +50 опасность
перегрева
997.4 993.7
12 12.07 В 4 20 км ясно +43.5 +12.7 17 +43 +50 опасность
перегрева
995.6 991.9
15 12.07 В 2 20 км ясно +40.6 +17.1 26 +43 +43 опасность
перегрева
995.3 991.6 +43.9
18 12.07 В 2 10 км 3/0
[Ac cast]
+33.2 +15.4 34 +35 +35 душно 995.8 992.0 +43.9
21 12.07 ЮЗ 1 10 км 3/0
[Ac cast]
+32.8 +17.4 40 +37 +37 очень
душно
997.2 993.4
00 13.07 В 1 10 км 8/0
[Ac As]
+32.4 +17.4 41 +36 +36 очень
душно
997.7 993.9
03 13.07 З 1 20 км 6/0
[Ac und]
+31.1 +20.4 53 +38 +40 очень
душно
999.8 996.0 +30.3
06 13.07 З 3 20 км ясно +35.6 +19.7 39 +41 +54 опасность
перегрева
1000.9 997.1 +30.3
09 13.07 З 5 20 км 8/0
[Cs]
+38.4 +18.9 32 +43 +51 опасность
перегрева
1001.6 997.9
12 13.07 З 7 20 км 8/0
[Cs]
+38.8 +18.1 30 +42 +44 опасность
перегрева
999.6 995.9
15 13.07 ЮЗ 9 20 км 6/6 1000 м
[Cu Sc]
+31.8 +20.1 50 +38 +38 очень
душно
1000.9 997.1 +39.6
18 13.07 З 7 10 км гроза без осадков 9/9 600 м
[Cb cap]
+30.0 +11.0 31 +30 +30 жарко 1001.6 997.8 +39.6
21 13.07 З 5 10 км {гроза} 8/8 600 м
[Sc]
+27.2 +21.4 71 +35 +35 очень
душно
1002.2 998.3
00 14.07 З 4 10 км {гроза} 3/3 1000 м
[Sc]
+27.0 +20.8 69 +34 +34 очень
душно
1002.2 998.3
03 14.07 З 4 20 км 3/3 1000 м
[Cu Sc]
+26.0 +21.2 75 +33 +34 очень
душно
1003.5 999.6 +25.4
06 14.07 З 6 20 км 3/3 1000 м
[Sc]
+29.1 +20.5 60 +36 +40 очень
душно
1003.5 999.7 +25.4
09 14.07 З 5 20 км 1/1 1000 м
[Sc]
+33.2 +20.0 46 +39 +49 очень
душно
1003.4 999.6
12 14.07 З 6 20 км 3/0
[Ac cast]
+34.6 +19.7 42 +40 +43 очень
душно
1003.1 999.3
15 14.07 З 6 20 км 3/3 1000 м
[Cu hum]
+33.6 +20.0 45 +40 +40 очень
душно
1003.1 999.3 +35.2
18 14.07 З 7 10 км ясно +29.9 +17.1 46 +34 +34 очень
душно
1005.4 1001.5 +35.2
21 14.07 штиль 0 10 км 10/10 600 м
[Cb cap]
+27.2 +15.9 50 +30 +30 душно 1006.0 1002.1
00 15.07 штиль 0 10 км 3/0
[Ac und]
+25.9 +14.8 50 +28 +28 жарко 1006.3 1002.4
03 15.07 СВ 1 20 км 8/8 1000 м
[Cu Sc]
+27.3 +17.5 55 +31 +32 душно 1006.5 1002.6 +25.8
06 15.07 С 1 20 км 3/0
[Ac cast]
+30.3 +18.6 50 +35 +49 очень
душно
1006.3 1002.4 +25.8
09 15.07 В 3 20 км 8/0
[Ac und]
+33.4 +17.4 39 +37 +44 очень
душно
1004.5 1000.7
12 15.07 В 2 20 км 8/0
[Ac As]
+34.4 +18.7 40 +39 +43 очень
душно
1002.4 998.6
15 15.07 В 3 20 км 6/0
[Ac und]
+35.4 +18.3 37 +40 +40 очень
душно
1001.3 997.5 +36.3
18 15.07 ЮЗ 1 10 км 8/4 1000 м
[Sc Ac As]
+32.2 +19.7 48 +38 +38 очень
душно
1001.5 997.7 +36.3
21 15.07 В 4 10 км 10/0
[Ac As]
+33.6 +16.2 35 +36 +36 очень
душно
1001.1 997.3
00 16.07 СВ 3 10 км 6/0
[Ac As]
+31.4 +15.7 39 +34 +34 душно 1000.6 996.8
03 16.07 СВ 2 20 км 3/0
[Ci sp]
+29.8 +16.8 46 +33 +36 душно 1000.9 997.1 +28.4
06 16.07 В 6 20 км ясно +35.8 +16.4 32 +38 +44 очень
душно
1000.5 996.7 +28.4
09 16.07 В 4 20 км 1/0
[Ci fib]
+40.2 +16.9 26 +43 +56 опасность
перегрева
999.8 996.1
12 16.07 В 6 20 км 8/0
[Ac cuf]
+39.4 +18.1 29 +43 +44 опасность
перегрева
997.1 993.4
15 16.07 СВ 2 20 км 9/0
[Ac cuf]
+39.4 +17.7 28 +42 +42 опасность
перегрева
997.7 994.0 +42.2
18 16.07 З 5 10 км 8/0
[Ac As]
+34.7 +17.6 36 +38 +38 очень
душно
998.9 995.1 +42.2
21 16.07 З 4 10 км ясно +33.3 +17.3 39 +37 +37 очень
душно
999.8 996.0
00 17.07 З 2 10 км ясно +30.6 +19.3 51 +36 +36 очень
душно
1000.6 996.8
03 17.07 В 2 20 км 6/0
[Ac As]
+29.8 +20.5 57 +37 +38 очень
душно
1001.9 998.1 +28.3
06 17.07 ЮЗ 6 20 км 9/0
[Ac As]
+30.4 +21.0 57 +38 +40 очень
душно
1002.4 998.6 +28.3
09 17.07 З 4 20 км 8/0
[Cs]
+36.9 +19.4 36 +42 +53 опасность
перегрева
1002.1 998.4
12 17.07 З 8 20 км 6/0
[Cs]
+37.1 +19.5 36 +42 +44 опасность
перегрева
1000.9 997.2
15 17.07 З 5 20 км 3/0
[Ac und]
+36.4 +18.5 35 +41 +41 опасность
перегрева
1000.7 996.9 +38.2
18 17.07 З 6 10 км ясно +31.6 +18.0 44 +36 +36 очень
душно
1001.9 998.1 +38.2
21 17.07 З 6 10 км ясно +29.8 +17.6 48 +34 +34 очень
душно
1002.0 998.2
00 18.07 З 4 10 км ясно +29.2 +18.0 51 +34 +34 очень
душно
1002.4 998.6
03 18.07 З 4 20 км ясно +29.7 +18.0 49 +34 +36 очень
душно
1003.2 999.4 +27.0
06 18.07 З 4 20 км 4/0
[Ci fib]
+32.4 +19.0 45 +38 +47 очень
душно
1004.3 1000.5 +27.0
09 18.07 З 4 20 км ясно +36.2 +19.4 37 +41 +54 опасность
перегрева
1003.2 999.4
12 18.07 З 4 20 км ясно +38.4 +20.2 35 +44 +50 опасность
перегрева
1001.9 998.2
15 18.07 СЗ 2 20 км ясно +38.2 +19.6 34 +43 +43 опасность
перегрева
1001.6 997.9 +39.0
18 18.07 З 4 10 км ясно +33.8 +19.2 42 +39 +39 очень
душно
1002.3 998.5 +39.0

 

Местоположение метеостанции Газаджак (Лебапский велаят, Туркменистан): широта 39.25 долгота 55.52 высота над уровнем моря 31 м.

В архиве по умолчанию представлена погода в Газаджаке за последнюю неделю. Архивные данные за месяц целиком и за предыдущие месяцы, начиная с января 2011 года, Вы можете получить, выбрав интересующий диапазон дат из раскрывающегося списка и нажав кнопку "Ввод!".


*Определитесь, кто Вы:
робот инопланетянин человек

Внимание! Время в таблицах - всемирное. Для получения местного времени необходимо прибавить поправку, которая равна 5 ч.

Смотрите также архив погоды в соседних городах и на ближайших метеорологических станциях:

Погода в Сердаре (Балканский велаят, Туркменистан) (72 км)
Погода в Небит-Даге (Балканский велаят, Туркменистан) (106 км)
Погода в Гаррыгале (Балканский велаят, Туркменистан) (114 км)
Погода в Мараве Таппе (Иран) (155 км)
Погода в Чагыле (Балканский велаят, Туркменистан) (171 км)
Погода в Бахарлы (Ахалский велаят, Туркменистан) (188 км)
Погода в Unknown (Туркменистан) (189 км)
Погода в Гызылетреке (Балканский велаят, Туркменистан) (192 км)
Погода в Огрыде (Балканский велаят, Туркменистан) (209 км)
Погода в Туркменбаши (Балканский велаят, Туркменистан) (233 км)

Пояснения к столбцам:

Ветер - указаны скорость ветра в м/с - средняя за 10 мин, порывы в срок и между сроками (в фигурных скобках) и направление, откуда дует ветер: С - северный, СВ - северо-восточный, В - восточный, ЮВ - юго-восточный, Ю - южный, ЮЗ - юго-западный, З - западный, СЗ - северо-западный.
Видимость - горизонтальная дальность видимости в метрах или километрах. При видимости от 1 до 10 км при отсутствии осадков обычно наблюдается дымка, при ухудшении видимости до 1 км и менее - туман. В сухую погоду видимость может ухудшаться дымом, пылью или мглою.
Явления - указаны атмосферные явления, наблюдавшиеся в срок или в последний час перед сроком; фигурными скобками обозначены явления, наблюдавшиеся между сроками (за 1-3 часа до срока); квадратными скобками обозначены град или гололедные отложения с указанием их диаметра в мм.
Облачность - указаны через наклонную черту общая и нижняя облачность в баллах и высота нижней границы облаков в метрах; квадратными скобками обозначены формы облаков: Ci - перистые, Cs - перисто-слоистые, Cc - перисто-кучевые, Ac - высококучевые, As - высокослоистые, Sc - слоисто-кучевые, Ns - слоисто-дождевые, Cu - кучевые, Cb - кучево-дождевые. Подробнее классификацию облаков см. в Атласе облаков (PDF).
T - Температура воздуха - температура, измеренная на высоте 2 м над землей.
Td - Температура точки росы - температура, при понижении до которой содержащийся в воздухе водяной пар достигнет насыщения.
f - Относительная влажность воздуха - влажноcть воздуха, измеренная на высоте 2 м над землей.
Te - Эффективная температура - температура, которую ощущает одетый по сезону человек в тени. Характеристика душности погоды. При расчете учитывается влияние влажности воздуха и скорости ветра на теплоощущения человека.
Tes - Эффективная температура на солнце - температура, которую ощущает человек, с поправкой на солнечный нагрев. Характеристика знойности погоды. Зависит от высоты солнца над горизонтом, облачности и скорости ветра. Ночью, в пасмурную погоду, а также при ветре 12 м/с и более поправка равна нулю.
P - Атмосферное давление - приведенное к уровню моря атмосферное давление.
Po - Атмосферное давление - измеренное на уровне метеостанции атмосферное давление.
Tmin - Минимальная температура - минимум температуры воздуха на высоте 2 м над землей.
Tmax - Максимальная температура - максимум температуры воздуха на высоте 2 м над землей.
R - Количество осадков - Количество выпавших осадков за период времени, мм. При наведении курсора мыши на число - период времени, за который выпало указанное количество осадков.
R24 - Количество осадков - Количество выпавших осадков за 24 часа, мм.
S - Снежный покров - Высота снежного покрова, см. При наведении курсора мыши на число - состояние снежного покрова и степень покрытия местности в баллах.